Mineola, TX

4:54 PM CDT on March 27, 2017 (GMT -0500)
Mineola

Weather History for KJDD - February, 2014

Change the Weather History Date:

Thursday, February 20, 2014

  Actual Average (KTYR) Record (KTYR)
Temperature  
Mean Temperature 60 °F -  
Max Temperature 75 °F 60 °F 88 °F (1986)
Min Temperature 44 °F 41 °F 19 °F (1978)
Degree Days  
Heating Degree Days 6    
Growing Degree Days 10 (Base 50)    
Moisture  
Dew Point 49 °F    
Average Humidity 59    
Maximum Humidity 83    
Minimum Humidity 21    
Precipitation  
Precipitation 0.00 in - - ()
Sea Level Pressure  
Sea Level Pressure 29.84 in    
Wind  
Wind Speed 12 mph (WSW)    
Max Wind Speed 21 mph    
Max Gust Speed 32 mph    
Visibility 9 miles    
Events Thunderstorm    
Averages and records for this station are not official NWS values.
T = Trace of Precipitation, MM = Missing Value Source: NWS Daily Summary

Daily Weather History Graph

Daily Weather History Graph

Search for Another Location

Airport or City:

Trip Planner

Search our weather history database for the weather conditions in past years. The results will help you decide how hot, cold, wet, or windy it might be!

Date:

Astronomy

Feb. 20, 2014 Rise Set
Actual Time 6:59 AM CST 6:11 PM CST
Civil Twilight 6:34 AM CST 6:36 PM CST
Nautical Twilight 6:06 AM CST 7:05 PM CST
Astronomical Twilight 5:37 AM CST 7:34 PM CST
Moon 11:46 PM CST (2/20) 10:02 AM CST (2/20)
Length of Visible Light 12h 02m
Length of Day
11h 12m
Waning Gibbous, 70% of the Moon is Illuminated
Feb 20
Waning Gibbous
Feb 22
Last Quarter
Mar 1
New
Mar 8
First Quarter
Mar 16
Full

Hourly Weather History & Observations

Time (CST) Temp. Windchill Dew Point Humidity Pressure Visibility Wind Dir Wind Speed Gust Speed Precip Events Conditions
12:15 AM 66.2 °F - 60.8 °F 83% 29.72 in 10.0 mi South 10.4 mph 18.4 mph N/A   Mostly Cloudy
12:35 AM 66.2 °F - 60.8 °F 83% 29.72 in 10.0 mi South 10.4 mph 17.3 mph N/A   Overcast
12:55 AM 66.2 °F - 60.8 °F 83% 29.72 in 10.0 mi South 5.8 mph - N/A   Overcast
1:15 AM 66.2 °F - 60.8 °F 83% 29.71 in 10.0 mi South 10.4 mph 21.9 mph N/A   Overcast
1:35 AM 66.2 °F - 60.8 °F 83% 29.70 in 10.0 mi South 15.0 mph 23.0 mph N/A   Mostly Cloudy
1:55 AM 66.2 °F - 60.8 °F 83% 29.69 in 10.0 mi South 15.0 mph 26.5 mph N/A   Mostly Cloudy
2:15 AM 66.2 °F - 60.8 °F 83% 29.70 in 10.0 mi South 11.5 mph 20.7 mph N/A   Mostly Cloudy
2:35 AM 66.2 °F - 60.8 °F 83% 29.71 in 10.0 mi SSW 9.2 mph 19.6 mph N/A   Mostly Cloudy
2:55 AM 66.2 °F - 60.8 °F 83% 29.70 in 10.0 mi South 13.8 mph 21.9 mph N/A   Mostly Cloudy
3:15 AM 66.2 °F - 60.8 °F 83% 29.69 in 10.0 mi South 11.5 mph 19.6 mph N/A   Scattered Clouds
3:35 AM 66.2 °F - 60.8 °F 83% 29.68 in 10.0 mi South 12.7 mph 19.6 mph N/A   Partly Cloudy
3:55 AM 66.2 °F - 60.8 °F 83% 29.69 in 10.0 mi South 8.1 mph 16.1 mph N/A   Clear
4:15 AM 66.2 °F - 60.8 °F 83% 29.68 in 10.0 mi South 11.5 mph 16.1 mph N/A   Clear
4:35 AM 66.2 °F - 60.8 °F 83% 29.67 in 10.0 mi South 12.7 mph 19.6 mph N/A   Clear
4:55 AM 66.2 °F - 60.8 °F 83% 29.69 in 10.0 mi South 12.7 mph 18.4 mph N/A   Scattered Clouds
5:15 AM 66.2 °F - 60.8 °F 83% 29.70 in 10.0 mi South 12.7 mph 19.6 mph N/A   Overcast
5:35 AM 66.2 °F - 60.8 °F 83% 29.70 in 10.0 mi South 11.5 mph 23.0 mph N/A   Overcast
5:55 AM 68.0 °F - 62.6 °F 83% 29.71 in 10.0 mi South 12.7 mph 23.0 mph N/A   Overcast
6:15 AM 68.0 °F - 62.6 °F 83% 29.70 in 10.0 mi South 12.7 mph 23.0 mph N/A   Overcast
6:35 AM 68.0 °F - 62.6 °F 83% 29.70 in 9.0 mi South 15.0 mph 24.2 mph N/A   Overcast
6:55 AM 69.8 °F - 62.6 °F 78% 29.70 in 10.0 mi South 20.7 mph 32.2 mph N/A   Overcast
7:15 AM 69.8 °F - 62.6 °F 78% 29.71 in 8.0 mi SSW 18.4 mph 25.3 mph N/A   Overcast
7:35 AM 69.8 °F - 62.6 °F 78% 29.71 in 8.0 mi SSW 16.1 mph 25.3 mph N/A   Overcast
7:55 AM 69.8 °F - 62.6 °F 78% 29.72 in 10.0 mi SSW 16.1 mph 25.3 mph N/A   Overcast
8:15 AM 69.8 °F - 62.6 °F 78% 29.73 in 8.0 mi SSW 16.1 mph 26.5 mph N/A   Overcast
8:35 AM 71.6 °F - 62.6 °F 73% 29.74 in 8.0 mi SSW 16.1 mph 25.3 mph N/A   Overcast
8:55 AM 71.6 °F - 64.4 °F 78% 29.74 in 8.0 mi SSW 15.0 mph 28.8 mph N/A   Overcast
9:15 AM 71.6 °F - 64.4 °F 78% 29.76 in 9.0 mi SW 17.3 mph 25.3 mph N/A   Overcast
9:35 AM 71.6 °F - 64.4 °F 78% 29.76 in 9.0 mi SW 17.3 mph 27.6 mph N/A   Overcast
9:55 AM 73.4 °F - 64.4 °F 73% 29.77 in 8.0 mi SW 17.3 mph 29.9 mph N/A   Overcast
10:15 AM 73.4 °F - 64.4 °F 73% 29.77 in 8.0 mi SW 17.3 mph 29.9 mph N/A   Mostly Cloudy
10:35 AM 73.4 °F - 64.4 °F 73% 29.78 in 8.0 mi SW 15.0 mph 26.5 mph N/A   Mostly Cloudy
10:55 AM 73.4 °F - 64.4 °F 73% 29.79 in 8.0 mi SW 15.0 mph 24.2 mph N/A   Mostly Cloudy
11:15 AM 73.4 °F - 62.6 °F 69% 29.79 in 8.0 mi SW 16.1 mph 26.5 mph N/A   Mostly Cloudy
11:35 AM 75.2 °F - 62.6 °F 65% 29.79 in 9.0 mi SW 11.5 mph 19.6 mph N/A   Mostly Cloudy
11:55 AM 75.2 °F - 62.6 °F 65% 29.80 in 9.0 mi WSW 15.0 mph 24.2 mph N/A   Mostly Cloudy
12:15 PM 75.2 °F - 60.8 °F 61% 29.80 in 9.0 mi WSW 18.4 mph 21.9 mph N/A   Mostly Cloudy
12:35 PM 75.2 °F - 57.2 °F 53% 29.80 in 9.0 mi West 13.8 mph 23.0 mph N/A   Scattered Clouds
12:55 PM 75.2 °F - 57.2 °F 53% 29.80 in 8.0 mi West 16.1 mph 19.6 mph N/A   Scattered Clouds
1:15 PM 75.2 °F - 57.2 °F 53% 29.78 in 9.0 mi West 15.0 mph 21.9 mph N/A Thunderstorm Partly Cloudy
1:35 PM 73.4 °F - 37.4 °F 27% 29.80 in 5.0 mi WNW 18.4 mph 24.2 mph N/A   Haze
1:55 PM 73.4 °F - 32.0 °F 22% 29.80 in 6.0 mi NW 20.7 mph 26.5 mph N/A   Haze
2:15 PM 73.4 °F - 32.0 °F 22% 29.80 in 6.0 mi NW 16.1 mph 21.9 mph N/A   Haze
2:35 PM 75.2 °F - 32.0 °F 21% 29.81 in 7.0 mi NW 17.3 mph 24.2 mph N/A   Mostly Cloudy
2:55 PM 73.4 °F - 32.0 °F 22% 29.82 in 6.0 mi NW 16.1 mph 25.3 mph N/A   Haze
3:15 PM 71.6 °F - 33.8 °F 25% 29.83 in 7.0 mi NW 15.0 mph 26.5 mph N/A   Clear
3:35 PM 71.6 °F - 30.2 °F 22% 29.84 in 9.0 mi NW 17.3 mph 29.9 mph N/A   Clear
3:55 PM 71.6 °F - 32.0 °F 23% 29.86 in 8.0 mi NW 13.8 mph 24.2 mph N/A   Clear
4:15 PM 69.8 °F - 32.0 °F 25% 29.87 in 8.0 mi NNW 18.4 mph 23.0 mph N/A   Clear
4:35 PM 66.2 °F - 33.8 °F 30% 29.88 in 9.0 mi NNW 17.3 mph 26.5 mph N/A   Clear
4:55 PM 66.2 °F - 33.8 °F 30% 29.90 in 9.0 mi NW 17.3 mph 23.0 mph N/A   Clear
5:15 PM 64.4 °F - 33.8 °F 32% 29.92 in 9.0 mi NW 15.0 mph 20.7 mph N/A   Clear
5:35 PM 62.6 °F - 32.0 °F 32% 29.94 in 10.0 mi NNW 9.2 mph 19.6 mph N/A   Clear
5:55 PM 60.8 °F - 32.0 °F 34% 29.95 in 10.0 mi NW 12.7 mph 20.7 mph N/A   Clear
6:15 PM 60.8 °F - 32.0 °F 34% 29.97 in 9.0 mi NW 12.7 mph 21.9 mph N/A   Clear
6:35 PM 59.0 °F - 32.0 °F 36% 29.99 in 10.0 mi NW 11.5 mph - N/A   Clear
6:55 PM 57.2 °F - 32.0 °F 38% 30.00 in 10.0 mi NW 15.0 mph - N/A   Clear
7:15 PM 57.2 °F - 32.0 °F 38% 30.01 in 10.0 mi NW 11.5 mph - N/A   Clear
7:35 PM 55.4 °F - 32.0 °F 41% 30.03 in 10.0 mi NW 11.5 mph 18.4 mph N/A   Clear
7:55 PM 55.4 °F - 32.0 °F 41% 30.04 in 10.0 mi NW 9.2 mph - N/A   Clear
8:15 PM 55.4 °F - 32.0 °F 41% 30.06 in 10.0 mi NW 9.2 mph - N/A   Clear
8:35 PM 53.6 °F - 32.0 °F 44% 30.07 in 10.0 mi NW 6.9 mph - N/A   Clear
8:55 PM 53.6 °F - 33.8 °F 47% 30.08 in 10.0 mi NW 5.8 mph - N/A   Clear
9:15 PM 51.8 °F - 33.8 °F 50% 30.08 in 10.0 mi NW 5.8 mph - N/A   Clear
9:35 PM 51.8 °F - 32.0 °F 47% 30.08 in 10.0 mi NW 6.9 mph - N/A   Clear
9:55 PM 51.8 °F - 32.0 °F 47% 30.10 in 10.0 mi NW 4.6 mph - N/A   Clear
10:15 PM 50.0 °F - 32.0 °F 50% 30.10 in 10.0 mi NW 4.6 mph - N/A   Clear
10:35 PM 50.0 °F - 32.0 °F 50% 30.10 in 10.0 mi NW 4.6 mph - N/A   Clear
10:55 PM 48.2 °F - 32.0 °F 54% 30.10 in 10.0 mi NW 3.5 mph - N/A   Clear
11:15 PM 46.4 °F - 32.0 °F 57% 30.10 in 10.0 mi Calm Calm - N/A   Clear
11:35 PM 44.6 °F 43.1 °F 32.0 °F 61% 30.11 in 10.0 mi NW 3.5 mph - N/A   Clear
11:55 PM 44.6 °F 43.1 °F 32.0 °F 61% 30.11 in 10.0 mi NW 3.5 mph - N/A   Clear